Location: Pasadena-CA
(34.1440°N, 118.1100°W)
Time: 00:38:28
(UTC-07:00)

CAS-4A - Visible Passes

Search period start: 01 July 2022 00:00
Search period end: 11 July 2022 00:00
Orbit: 523 x 536 km, 43.0° (Epoch: 30 June)

Date Brightness Start Highest point End Pass type
(mag) Time Alt. Az. Time Alt. Az. Time Alt. Az.
01 Jul ? 02:56:58 46° N 02:56:58 46° N 03:00:20 10° NE visible
01 Jul ? 04:33:39 10° WNW 04:36:57 24° N 04:40:15 10° NE visible
02 Jul ? 02:44:41 38° NNE 02:44:41 38° NNE 02:47:46 10° NE visible
02 Jul ? 04:21:17 10° WNW 04:24:32 23° N 04:27:48 10° NE visible
03 Jul ? 02:32:23 32° NNE 02:32:23 32° NNE 02:35:11 10° NE visible
03 Jul ? 04:08:52 10° NW 04:12:06 22° N 04:15:19 10° NE visible
04 Jul ? 02:20:06 28° NNE 02:20:06 28° NNE 02:22:37 10° NE visible
04 Jul ? 03:56:27 10° NW 03:59:40 22° N 04:02:54 10° NE visible
05 Jul ? 02:07:49 24° NNE 02:07:49 24° NNE 02:10:02 10° NE visible
05 Jul ? 03:43:58 10° NW 03:47:13 23° N 03:50:28 10° ENE visible
06 Jul ? 01:55:35 21° NNE 01:55:35 21° NNE 01:57:29 10° NE visible
06 Jul ? 03:31:30 10° NW 03:34:47 23° N 03:38:04 10° ENE visible
06 Jul ? 05:11:24 10° NW 05:15:21 51° NNE 05:19:18 10° E visible
07 Jul ? 01:43:25 18° NNE 01:43:25 18° NNE 01:44:55 10° NE visible
07 Jul ? 03:18:59 10° NW 03:22:19 24° N 03:25:40 10° ENE visible
07 Jul ? 04:58:49 10° NW 05:02:49 61° NNE 05:06:49 10° ESE visible
08 Jul ? 01:31:26 15° NE 01:31:26 15° NE 01:32:23 10° NE visible
08 Jul ? 03:06:38 11° NW 03:09:51 26° N 03:13:17 10° ENE visible
08 Jul ? 04:46:14 10° WNW 04:50:16 74° NNE 04:54:19 10° ESE visible
09 Jul ? 01:19:47 10° NE 01:19:47 10° NE 01:19:51 10° NE visible
09 Jul ? 02:55:01 16° NW 02:57:22 28° NNE 03:00:54 10° ENE visible
09 Jul ? 04:33:40 10° WNW 04:37:42 90° ENE 04:41:45 10° ESE visible
09 Jul ? 21:39:43 10° SW 21:43:30 40° SE 21:43:49 39° SE visible
10 Jul ? 02:44:07 28° N 02:44:53 31° NNE 02:48:30 10° E visible
10 Jul ? 04:21:06 10° WNW 04:25:07 73° SSW 04:29:08 10° SE visible
10 Jul ? 21:26:59 10° SW 21:30:52 51° SE 21:34:46 10° ENE visible
10 Jul ? 23:07:13 10° W 23:10:10 33° NW 23:10:10 33° NW visible
